Plattsmouth, NE

8:05 AM CDT on May 24, 2017 (GMT -0500)
Plattsmouth Municipal

Weather History for KPMV - December, 2013

Change the Weather History Date:

Wednesday, December 18, 2013

  Actual Average (KOFF) Record (KOFF)
Temperature  
Mean Temperature 43 °F -  
Max Temperature 58 °F 33 °F 57 °F (2013)
Min Temperature 28 °F 15 °F -10 °F (2016)
Degree Days  
Heating Degree Days 22    
Moisture  
Dew Point 25 °F    
Average Humidity 54    
Maximum Humidity 74    
Minimum Humidity 32    
Precipitation  
Precipitation 0.00 in - - ()
Sea Level Pressure  
Sea Level Pressure 29.83 in    
Wind  
Wind Speed 10 mph (South)    
Max Wind Speed 17 mph    
Max Gust Speed 24 mph    
Visibility 10 miles    
Events      
Averages and records for this station are not official NWS values.
T = Trace of Precipitation, MM = Missing Value Source: NWS Daily Summary

Daily Weather History Graph

Daily Weather History Graph

Search for Another Location

Airport or City:

Trip Planner

Search our weather history database for the weather conditions in past years. The results will help you decide how hot, cold, wet, or windy it might be!

Date:

Astronomy

Dec. 18, 2013 Rise Set
Actual Time 7:43 AM CST 4:57 PM CST
Civil Twilight 7:12 AM CST 5:28 PM CST
Nautical Twilight 6:37 AM CST 6:03 PM CST
Astronomical Twilight 6:04 AM CST 6:36 PM CST
Moon 6:31 PM CST (12/18) 8:23 AM CST (12/18)
Length of Visible Light 10h 16m
Length of Day
9h 14m
Full, 98% of the Moon is Illuminated
Dec 18
Full
Dec 25
Last Quarter
Jan 1
New
Jan 7
First Quarter
Jan 15
Full

Hourly Weather History & Observations

Time (CST) Temp. Windchill Dew Point Humidity Pressure Visibility Wind Dir Wind Speed Gust Speed Precip Events Conditions
12:15 AM 29.3 °F 20.8 °F 18.0 °F 63% 30.10 in 10.0 mi SSE 9.2 mph - N/A   Clear
12:35 AM 29.7 °F 20.1 °F 18.3 °F 63% 30.09 in 10.0 mi SSE 11.5 mph - N/A   Clear
12:55 AM 29.8 °F 19.8 °F 18.3 °F 62% 30.07 in 10.0 mi SSE 12.7 mph - N/A   Clear
1:15 AM 28.9 °F 18.6 °F 18.5 °F 65% 30.06 in 10.0 mi SSE 12.7 mph - N/A   Clear
1:35 AM 29.1 °F 18.4 °F 18.9 °F 66% 30.04 in 10.0 mi SSE 13.8 mph - N/A   Clear
1:55 AM 30.9 °F 20.2 °F 19.4 °F 62% 30.04 in 10.0 mi SSE 15.0 mph - N/A   Clear
2:15 AM 31.6 °F 21.2 °F 19.8 °F 62% 30.03 in 10.0 mi SSE 15.0 mph - N/A   Clear
2:35 AM 31.8 °F 21.4 °F 19.9 °F 62% 30.02 in 10.0 mi SSE 15.0 mph 19.6 mph N/A   Clear
2:55 AM 31.1 °F 20.9 °F 20.1 °F 64% 30.00 in 10.0 mi SSE 13.8 mph 18.4 mph N/A   Clear
3:15 AM 31.1 °F 20.9 °F 19.9 °F 63% 29.99 in 10.0 mi SSE 13.8 mph 17.3 mph N/A   Clear
3:35 AM 30.7 °F 20.9 °F 20.1 °F 65% 29.98 in 10.0 mi SSE 12.7 mph 18.4 mph N/A   Clear
3:55 AM 30.2 °F 20.2 °F 20.1 °F 66% 29.97 in 10.0 mi SSE 12.7 mph - N/A   Clear
4:15 AM 29.8 °F 19.8 °F 20.3 °F 68% 29.96 in 10.0 mi SSE 12.7 mph - N/A   Clear
4:35 AM 30.2 °F 20.8 °F 20.3 °F 67% 29.95 in 10.0 mi SSE 11.5 mph 16.1 mph N/A   Clear
4:55 AM 30.6 °F 21.8 °F 20.8 °F 67% 29.94 in 10.0 mi SSE 10.4 mph - N/A   Clear
5:15 AM 30.0 °F 24.1 °F 20.8 °F 69% 29.94 in 10.0 mi SE 5.8 mph - N/A   Clear
5:35 AM 28.8 °F 22.6 °F 20.3 °F 71% 29.93 in 10.0 mi ESE 5.8 mph - N/A   Clear
5:55 AM 28.6 °F 19.9 °F 21.0 °F 73% 29.91 in 10.0 mi SSE 9.2 mph - N/A   Clear
6:15 AM 30.6 °F 21.8 °F 21.6 °F 69% 29.91 in 10.0 mi SSE 10.4 mph - N/A   Clear
6:35 AM 30.0 °F 22.4 °F 21.2 °F 70% 29.90 in 10.0 mi SSE 8.1 mph - N/A   Clear
6:55 AM 28.4 °F 19.7 °F 21.0 °F 74% 29.89 in 10.0 mi SSE 9.2 mph - N/A   Clear
7:15 AM 30.0 °F 20.0 °F 21.9 °F 72% 29.88 in 10.0 mi South 12.7 mph - N/A   Clear
7:35 AM 31.1 °F 21.9 °F 22.5 °F 70% 29.87 in 10.0 mi South 11.5 mph - N/A   Clear
7:55 AM 31.5 °F 22.9 °F 22.8 °F 70% 29.86 in 10.0 mi SSE 10.4 mph - N/A   Clear
8:15 AM 32.2 °F 23.8 °F 23.9 °F 72% 29.86 in 10.0 mi South 10.4 mph - N/A   Clear
8:35 AM 34.5 °F 26.2 °F 24.8 °F 68% 29.85 in 10.0 mi South 11.5 mph - N/A   Clear
8:55 AM 35.6 °F 27.1 °F 25.5 °F 67% 29.84 in 10.0 mi South 12.7 mph 17.3 mph N/A   Clear
9:15 AM 36.7 °F 28.0 °F 26.4 °F 66% 29.84 in 10.0 mi South 13.8 mph 17.3 mph N/A   Clear
9:35 AM 40.8 °F 33.7 °F 27.7 °F 60% 29.84 in 10.0 mi South 12.7 mph 18.4 mph N/A   Clear
9:55 AM 42.8 °F 35.4 °F 27.9 °F 56% 29.83 in 10.0 mi SSW 15.0 mph - N/A   Clear
10:15 AM 43.9 °F 36.2 °F 28.2 °F 54% 29.83 in 10.0 mi SSW 17.3 mph 23.0 mph N/A   Clear
10:35 AM 45.3 °F 38.4 °F 28.4 °F 52% 29.82 in 10.0 mi SSW 16.1 mph 24.2 mph N/A   Clear
10:55 AM 46.6 °F - 28.2 °F 49% 29.82 in 10.0 mi SSW 17.3 mph - N/A   Clear
11:15 AM 47.8 °F - 28.2 °F 47% 29.81 in 10.0 mi SSW 15.0 mph 20.7 mph N/A   Scattered Clouds
11:35 AM 47.7 °F - 28.4 °F 47% 29.80 in 10.0 mi SSW 13.8 mph 20.7 mph N/A   Clear
11:55 AM 48.9 °F - 28.4 °F 45% 29.79 in 10.0 mi SW 16.1 mph - N/A   Clear
12:15 PM 49.1 °F - 28.4 °F 45% 29.78 in 10.0 mi SSW 17.3 mph - N/A   Clear
12:35 PM 49.8 °F - 28.9 °F 45% 29.77 in 10.0 mi SSW 10.4 mph - N/A   Clear
12:55 PM 49.5 °F - 28.6 °F 45% 29.76 in 10.0 mi SSW 12.7 mph - N/A   Clear
1:15 PM 50.2 °F - 29.3 °F 45% 29.75 in 10.0 mi South 10.4 mph - N/A   Clear
1:35 PM 51.6 °F - 29.3 °F 42% 29.74 in 10.0 mi SSW 13.8 mph - N/A   Clear
1:55 PM 52.9 °F - 28.8 °F 40% 29.73 in 10.0 mi South 13.8 mph - N/A   Clear
2:15 PM 55.9 °F - 28.9 °F 36% 29.73 in 10.0 mi SSW 11.5 mph - N/A   Clear
2:35 PM 56.8 °F - 28.6 °F 34% 29.72 in 10.0 mi SSW 11.5 mph - N/A   Clear
2:55 PM 56.3 °F - 28.4 °F 34% 29.72 in 10.0 mi SSW 10.4 mph 17.3 mph N/A   Clear
3:15 PM 57.6 °F - 28.4 °F 33% 29.72 in 10.0 mi SSW 9.2 mph - N/A   Clear
3:35 PM 58.1 °F - 28.6 °F 32% 29.72 in 10.0 mi South 9.2 mph - N/A   Clear
3:55 PM 57.7 °F - 28.2 °F 32% 29.72 in 10.0 mi SSW 10.4 mph - N/A   Clear
4:15 PM 56.7 °F - 27.5 °F 33% 29.72 in 10.0 mi SSW 10.4 mph - N/A   Clear
4:35 PM 54.3 °F - 27.3 °F 35% 29.72 in 10.0 mi SSW 4.6 mph - N/A   Clear
4:55 PM 50.9 °F - 27.5 °F 40% 29.72 in 10.0 mi South 5.8 mph - N/A   Clear
5:15 PM 48.7 °F - 27.1 °F 43% 29.72 in 10.0 mi South 8.1 mph - N/A   Clear
5:35 PM 47.1 °F - 27.0 °F 46% 29.71 in 10.0 mi South 3.5 mph - N/A   Clear
5:55 PM 48.7 °F - 27.1 °F 43% 29.72 in 10.0 mi SW 4.6 mph - N/A   Clear
6:15 PM 49.1 °F - 26.8 °F 42% 29.73 in 10.0 mi SW 3.5 mph - N/A   Clear
6:35 PM 48.7 °F - 27.0 °F 43% 29.73 in 10.0 mi Calm Calm - N/A   Clear
6:55 PM 43.5 °F 40.1 °F 26.6 °F 51% 29.72 in 10.0 mi SSW 5.8 mph - N/A   Clear
7:15 PM 46.2 °F 43.3 °F 27.3 °F 48% 29.72 in 10.0 mi South 5.8 mph - N/A   Clear
7:35 PM 44.2 °F - 27.1 °F 51% 29.72 in 10.0 mi Calm Calm - N/A   Clear
7:55 PM 44.6 °F - 27.1 °F 50% 29.72 in 10.0 mi Calm Calm - N/A   Clear
8:15 PM 39.4 °F 37.2 °F 27.1 °F 62% 29.72 in 10.0 mi North 3.5 mph - N/A   Clear
8:35 PM 43.9 °F 42.3 °F 27.7 °F 53% 29.73 in 10.0 mi NNW 3.5 mph - N/A   Clear
8:55 PM 47.3 °F - 27.5 °F 46% 29.73 in 10.0 mi Calm Calm - N/A   Clear
9:15 PM 44.4 °F - 27.5 °F 52% 29.72 in 10.0 mi Calm Calm - N/A   Clear
9:35 PM 47.8 °F - 27.5 °F 45% 29.73 in 10.0 mi Calm Calm - N/A   Clear
9:55 PM 46.0 °F - 27.5 °F 48% 29.74 in 10.0 mi Calm Calm - N/A   Clear
10:15 PM 43.0 °F - 27.5 °F 54% 29.73 in 10.0 mi Calm Calm - N/A   Clear
10:35 PM 44.4 °F - 28.0 °F 53% 29.74 in 10.0 mi Calm Calm - N/A   Clear
10:55 PM 44.2 °F - 27.9 °F 53% 29.73 in 10.0 mi Calm Calm - N/A   Clear
11:15 PM 46.0 °F - 27.9 °F 49% 29.72 in 10.0 mi Calm Calm - N/A   Clear
11:35 PM 39.9 °F 37.8 °F 27.1 °F 60% 29.73 in 10.0 mi SE 3.5 mph - N/A   Clear
11:55 PM 36.9 °F 33.1 °F 27.3 °F 68% 29.73 in 10.0 mi SE 4.6 mph - N/A   Clear